Temperature
3 3 3 3 3 3 3 4 3 3 2 3 3 4 4 4 4 4 4 4 4 4 4 5 4 5 4 5 5 4 4 4 4 4 4 4 4 4
2 2 3 3 3 3 3 3 3 3 2 3 3 3 3 3 3 4 4 4 4 4 4 4 4 4 4 4 4 4 4 4 4 4 4 4 4 4
2 2 2 2 2 2 2 2 2 2 2 2 2 2 2 3 3 3 3 3 3 3 3 3 3 3 3 3 3 3 3 3 3 3 3 3 3 3
1 1 1 1 1 1 1 1 2 2 2 2 2 2 2 2 2 2 2 2 2 2 2 2 2 3 3 3 3 3 3 3 3 3 2 2 2 2
0 0 1 1 1 1 1 1 1 1 1 1 1 1 1 1 1 1 1 2 2 2 2 2 2 2 2 2 2 2 2 2 2 2 2 2 2 2
-0 -0 -0 0 0 0 0 0 0 0 0 0 0 0 0 0 0 1 1 1 1 1 1 1 1 1 2 2 2 2 2 1 1 1 1 1 1 1
-1 -1 -1 -0 -0 -0 -0 -0 -0 -0 -0 -0 -1 -1 -1 -0 -0 0 -0 0 0 0 0 0 1 1 1 1 1 1 1 1 1 1 1 1 1 1
-2 -2 -1 -1 -1 -1 -1 -1 -1 -1 -1 -1 -1 -1 -1 -1 -1 -1 -1 -1 -1 -1 -1 -0 -0 -0 0 0 0 0 -0 -0 -0 -0 -0 -0 -0 -0
-3 -2 -2 -2 -2 -2 -2 -2 -2 -2 -1 -1 -1 -1 -1 -1 -1 -1 -1 -1 -1 -1 -1 -1 -1 -1 -1 -1 -1 -1 -1 -1 -1 -1 -1 -1 -1 -1
-3 -3 -3 -3 -3 -3 -3 -3 -2 -2 -2 -2 -2 -2 -2 -2 -2 -1 -1 -2 -2 -2 -2 -2 -2 -2 -2 -1 -2 -2 -2 -2 -2 -2 -2 -2 -2 -2
-4 -4 -4 -3 -3 -3 -3 -3 -3 -3 -3 -3 -3 -3 -3 -2 -2 -3 -3 -3 -3 -3 -3 -3 -3 -3 -2 -2 -2 -2 -2 -2 -2 -3 -3 -3 -2 -2
-5 -5 -4 -4 -4 -4 -4 -4 -4 -4 -4 -4 -4 -3 -3 -3 -3 -3 -3 -3 -3 -3 -3 -3 -3 -4 -4 -3 -3 -3 -3 -3 -3 -3 -3 -3 -3 -3
-5 -5 -5 -5 -5 -5 -5 -5 -4 -4 -4 -4 -4 -4 -4 -4 -4 -4 -4 -4 -4 -4 -4 -4 -4 -4 -4 -4 -4 -4 -4 -4 -4 -4 -4 -4 -4 -4
-6 -6 -6 -6 -5 -5 -5 -5 -5 -5 -5 -5 -5 -5 -5 -5 -5 -5 -5 -5 -4 -4 -4 -4 -5 -4 -5 -5 -5 -5 -5 -5 -5 -5 -5 -5 -5 -5
-7 -7 -7 -6 -6 -6 -6 -6 -6 -6 -6 -6 -6 -5 -5 -5 -5 -5 -5 -5 -5 -5 -5 -5 -5 -5 -5 -5 -5 -6 -6 -5 -5 -5 -5 -5 -5 -5
-8 -7 -7 -7 -7 -7 -7 -6 -7 -7 -6 -6 -6 -6 -6 -6 -6 -6 -6 -6 -6 -6 -6 -6 -6 -6 -6 -6 -6 -6 -6 -6 -6 -6 -6 -6 -6 -6
-8 -8 -8 -8 -8 -7 -7 -7 -7 -7 -7 -7 -7 -7 -7 -7 -7 -7 -7 -7 -7 -7 -7 -7 -7 -7 -7 -7 -7 -7 -7 -7 -7 -7 -7 -7 -6 -6
-9 -9 -9 -9 -8 -8 -8 -8 -8 -8 -7 -7 -7 -7 -7 -7 -7 -7 -7 -7 -7 -7 -7 -7 -7 -8 -8 -8 -7 -7 -7 -7 -7 -7 -7 -7 -7 -7
-10 -10 -9 -9 -9 -9 -8 -8 -8 -8 -8 -8 -8 -8 -8 -8 -8 -8 -8 -8 -8 -8 -8 -8 -8 -8 -8 -8 -8 -8 -8 -8 -8 -8 -8 -8 -8 -7
-10 -10 -10 -10 -10 -9 -9 -9 -8 -8 -8 -8 -9 -9 -9 -9 -9 -9 -9 -9 -8 -8 -8 -8 -8 -8 -8 -8 -8 -8 -8 -8 -8 -8 -8 -8 -8 -8
-11 -11 -11 -10 -10 -10 -10 -10 -9 -9 -9 -9 -9 -9 -9 -9 -9 -9 -9 -9 -9 -9 -9 -9 -8 -8 -9 -9 -9 -9 -9 -9 -9 -9 -9 -9 -9 -9
-11 -11 -11 -11 -11 -11 -11 -10 -10 -10 -10 -10 -10 -10 -10 -10 -10 -10 -10 -10 -10 -10 -9 -9 -9 -9 -9 -9 -9 -9 -9 -9 -9 -9 -9 -9 -10 -10
-12 -12 -12 -11 -11 -11 -11 -11 -11 -11 -10 -10 -10 -10 -10 -10 -10 -10 -10 -10 -10 -10 -10 -10 -10 -10 -10 -10 -10 -10 -10 -10 -10 -10 -10 -10 -10 -10
Wind_Speed
4 5 4 4 3 3 3 5 5 4 4 3 2 3 5 5 6 7 7 7 7 7 6 5 5 4 4 4 4 3 3 3 2 2 2 3 4 5
4 5 5 4 3 3 4 4 3 4 4 3 3 2 5 5 7 6 7 8 8 8 7 6 6 5 5 5 5 4 4 3 3 3 3 3 4 5
4 6 6 5 4 4 4 4 4 3 4 3 2 2 3 4 5 6 6 7 7 8 8 8 7 7 6 6 6 5 5 4 4 4 4 4 4 4
5 5 6 5 6 5 5 5 4 4 5 5 3 3 3 4 4 5 5 5 6 8 9 8 8 8 8 7 7 6 5 5 5 4 4 4 4 4
5 5 6 6 6 5 5 5 4 4 4 4 4 3 2 3 3 3 3 3 4 6 7 8 8 8 8 8 7 6 6 6 5 4 4 4 4 4
4 5 5 7 7 7 6 6 5 5 5 4 4 4 3 2 3 4 3 3 3 4 5 6 7 7 8 8 8 7 7 6 5 5 4 4 4 5
4 5 5 5 7 7 6 6 6 6 5 5 5 4 4 4 4 3 4 2 2 3 3 4 4 5 6 6 6 7 7 6 6 5 5 4 4 5
5 5 5 6 7 9 9 9 9 9 8 7 6 7 7 5 4 4 4 3 3 3 3 3 4 3 4 6 7 6 6 6 6 6 6 5 5 5
4 4 4 5 6 5 7 8 8 9 10 9 8 9 7 7 7 6 6 5 4 3 3 3 3 3 4 6 7 7 7 6 6 6 6 6 6 6
4 5 5 5 5 5 5 5 5 6 7 7 7 7 7 7 7 6 6 3 1 2 3 3 3 3 3 5 7 7 7 7 7 7 7 7 6 6
5 5 5 5 6 7 6 5 5 4 5 7 7 7 7 8 8 4 5 4 3 3 2 2 2 2 2 3 6 7 8 8 7 7 7 7 7 7
3 4 6 6 8 8 6 6 6 5 3 3 3 4 5 6 8 7 6 6 3 3 3 3 2 1 2 2 3 4 6 7 7 7 7 8 8 6
4 3 4 7 9 9 8 6 7 5 4 4 4 3 3 4 5 6 6 5 5 4 4 3 3 2 2 2 2 3 4 4 4 5 7 8 8 6
4 4 4 7 8 8 7 7 8 6 4 4 4 4 4 4 4 5 5 4 4 4 5 5 3 4 3 3 3 2 2 4 4 4 5 7 8 8
4 5 6 7 7 6 7 7 6 4 4 4 5 5 4 4 4 3 3 3 2 3 6 6 3 3 3 4 3 3 2 3 4 4 4 5 5 5
4 5 6 6 6 6 6 5 4 4 5 5 4 3 3 3 3 3 3 3 2 1 2 5 5 4 4 3 3 4 3 3 3 4 4 5 6 6
3 2 2 2 3 3 4 4 4 4 4 4 4 3 4 4 4 3 3 3 3 4 3 2 2 3 3 3 4 4 4 4 3 3 3 4 4 5
3 3 3 3 3 4 4 4 4 4 4 4 4 5 5 5 4 3 4 4 4 4 4 3 2 1 1 2 4 4 4 4 3 3 3 4 5 5
3 2 3 3 3 3 4 4 4 4 4 4 4 5 5 5 5 5 5 4 4 4 4 4 4 4 5 5 4 5 4 4 3 3 4 4 5 5
2 2 3 3 3 3 3 3 3 3 4 4 4 5 5 5 5 5 5 5 5 5 4 4 5 6 6 5 4 4 7 5 4 5 4 3 4 7
2 2 2 2 2 2 2 3 3 4 4 4 4 5 5 5 5 5 6 7 6 5 6 6 6 6 2 1 2 3 3 7 7 5 4 3 4 4
2 2 2 2 2 2 2 2 3 3 4 4 4 5 5 5 6 6 6 6 5 5 5 4 3 3 4 5 5 5 4 3 5 7 7 7 4 4
2 2 2 2 2 2 2 3 3 3 4 5 5 5 5 5 5 5 5 6 5 5 4 4 3 3 4 5 5 4 4 4 3 3 4 6 8 10
Wind_Direction
204 201 200 199 194 196 186 177 176 195 220 213 203 196 191 196 201 192 195 203 206 209 213 217 221 224 227 243 246 247 256 271 279 281 300 316 323 330
205 206 207 205 198 196 196 195 194 192 211 210 211 206 191 204 208 201 203 204 208 214 216 218 222 223 228 238 244 244 248 258 261 270 284 297 307 320
215 208 209 202 200 202 200 199 202 193 213 232 220 194 184 193 204 202 207 206 211 216 219 221 221 222 226 231 234 237 244 251 250 257 269 282 292 304
220 212 212 206 202 200 200 205 205 203 202 211 211 201 210 199 190 189 202 207 213 215 218 223 224 226 228 229 229 233 241 244 242 246 258 271 283 298
224 221 215 204 208 203 201 206 206 206 200 197 206 202 209 192 188 194 191 197 213 213 217 221 227 231 231 230 228 233 239 239 235 236 247 259 273 291
223 227 221 206 205 204 208 206 202 198 192 191 191 193 200 187 183 189 197 205 215 218 218 228 229 231 232 232 231 230 232 234 237 238 244 250 264 278
227 227 224 213 210 208 209 203 201 198 193 195 196 196 198 183 202 196 199 197 229 207 190 224 226 231 237 236 233 233 230 233 241 243 244 251 265 275
232 233 225 218 215 218 216 210 205 204 202 204 210 208 210 202 197 195 186 188 232 211 197 232 215 219 233 240 233 235 236 238 244 247 244 251 263 271
234 232 232 230 220 218 221 216 217 218 214 208 206 212 208 200 192 198 197 205 226 201 192 235 213 227 230 235 233 232 239 244 248 254 253 254 261 271
237 230 227 230 225 211 207 213 220 225 220 217 212 210 212 198 200 205 194 189 174 202 197 229 223 230 233 233 233 237 243 247 252 256 261 261 262 268
240 232 224 222 229 218 209 212 220 231 229 218 216 210 209 206 199 182 177 187 225 231 213 210 222 238 234 232 231 235 241 246 256 260 265 268 268 271
245 234 231 228 228 221 212 205 211 216 209 212 211 212 205 203 205 205 196 199 215 226 206 191 196 186 242 241 222 234 240 248 255 259 264 269 274 275
247 242 237 234 233 227 217 212 218 208 198 203 210 212 205 201 202 202 200 203 210 227 201 187 205 212 217 243 252 228 219 236 255 261 264 269 274 273
242 245 241 236 238 235 230 223 223 217 201 204 211 213 211 213 206 191 192 198 211 220 203 195 212 212 215 237 251 235 228 238 243 248 260 273 275 268
243 245 249 243 243 241 237 230 226 216 203 205 213 215 209 199 181 169 162 164 182 215 205 206 205 210 211 226 227 231 255 252 235 234 246 255 260 264
256 254 253 254 248 240 236 231 222 215 209 209 210 208 188 181 188 187 187 182 190 240 222 212 208 203 223 226 222 231 231 230 230 246 251 253 253 249
255 257 252 242 238 231 221 213 207 209 215 201 195 194 196 196 201 194 193 192 207 211 212 212 194 201 220 222 228 229 229 241 237 233 252 263 260 254
258 243 239 238 234 231 220 212 207 209 207 203 199 196 200 201 203 200 199 200 208 211 207 199 183 201 273 286 244 229 231 238 238 230 241 257 268 261
250 240 237 237 238 231 223 216 216 208 200 200 200 198 198 201 203 206 206 207 214 216 212 203 204 206 222 250 253 226 228 237 238 242 244 250 261 263
248 245 247 245 239 234 230 223 215 200 195 198 199 199 200 201 205 209 210 210 214 216 216 215 215 215 221 231 243 256 231 226 229 242 254 265 272 270
264 259 256 255 250 240 233 224 213 207 204 201 203 204 202 204 209 211 211 215 217 216 219 226 228 222 216 186 238 258 253 235 234 239 241 257 273 276
282 280 276 263 250 239 231 222 218 212 207 207 207 207 206 206 209 211 210 212 216 217 223 227 211 210 216 224 234 245 259 267 259 255 250 246 240 241
293 286 281 273 258 247 238 225 219 220 214 209 209 207 206 210 211 211 211 211 211 214 216 219 219 220 223 223 230 241 246 256 265 275 275 271 267 268
Height
1494 1496 1499 1501 1503 1506 1508 1510 1512 1512 1515 1517 1520 1522 1524 1526 1528 1530 1532 1534 1535 1537 1539 1540 1541 1543 1544 1545 1546 1546 1547 1548 1548 1549 1549 1549 1549 1549
1489 1492 1494 1496 1498 1500 1502 1504 1506 1508 1509 1511 1514 1517 1519 1522 1523 1525 1527 1529 1530 1532 1534 1535 1537 1538 1539 1540 1541 1542 1543 1544 1544 1545 1545 1545 1545 1545
1484 1486 1487 1490 1492 1495 1497 1499 1501 1503 1504 1506 1509 1511 1514 1516 1517 1519 1521 1523 1525 1527 1529 1531 1532 1533 1535 1536 1537 1537 1538 1539 1540 1540 1541 1541 1541 1541
1479 1480 1482 1484 1486 1489 1491 1493 1495 1497 1499 1500 1503 1505 1508 1510 1512 1513 1515 1518 1520 1522 1524 1525 1527 1528 1530 1531 1532 1533 1533 1534 1535 1535 1536 1536 1536 1536
1473 1475 1477 1478 1480 1482 1485 1487 1489 1492 1494 1495 1496 1499 1502 1504 1506 1508 1510 1512 1514 1516 1518 1520 1522 1523 1525 1526 1527 1527 1528 1529 1530 1530 1531 1531 1531 1531
1468 1469 1471 1472 1475 1477 1479 1481 1484 1486 1488 1490 1491 1493 1496 1498 1500 1501 1503 1506 1508 1510 1512 1514 1516 1518 1519 1520 1521 1522 1523 1524 1525 1525 1526 1526 1526 1526
1463 1464 1465 1467 1469 1471 1473 1475 1478 1479 1482 1483 1485 1487 1489 1492 1494 1495 1497 1499 1502 1504 1506 1508 1510 1511 1513 1514 1515 1516 1517 1518 1519 1519 1520 1520 1521 1521
1457 1458 1460 1462 1463 1465 1467 1469 1472 1473 1475 1477 1478 1480 1482 1485 1488 1490 1491 1493 1495 1498 1500 1502 1504 1505 1506 1508 1509 1511 1511 1512 1513 1513 1514 1514 1515 1515
1452 1453 1454 1455 1457 1460 1462 1464 1465 1467 1470 1471 1472 1474 1476 1479 1482 1484 1486 1487 1489 1492 1494 1494 1497 1498 1500 1502 1504 1505 1506 1506 1507 1508 1508 1509 1509 1509
1446 1447 1448 1449 1452 1454 1456 1457 1459 1461 1463 1465 1467 1469 1472 1474 1477 1479 1480 1482 1484 1486 1489 1489 1490 1492 1494 1496 1497 1499 1500 1501 1502 1502 1503 1503 1503 1503
1441 1442 1443 1444 1446 1449 1450 1452 1453 1455 1458 1460 1462 1464 1466 1469 1471 1473 1474 1476 1477 1479 1482 1483 1484 1486 1488 1490 1492 1493 1494 1495 1496 1496 1497 1497 1497 1497
1436 1436 1438 1440 1441 1443 1445 1446 1447 1449 1452 1454 1456 1458 1460 1462 1465 1467 1469 1470 1470 1473 1475 1478 1479 1481 1482 1483 1485 1487 1488 1489 1490 1490 1491 1491 1491 1491
1430 1431 1433 1434 1436 1438 1439 1440 1442 1445 1447 1448 1450 1452 1453 1456 1458 1460 1463 1465 1465 1466 1470 1472 1473 1475 1477 1477 1479 1481 1482 1483 1483 1484 1484 1485 1485 1485
1426 1427 1428 1429 1431 1432 1433 1435 1438 1440 1441 1442 1444 1445 1447 1449 1451 1454 1457 1459 1460 1462 1464 1466 1467 1469 1471 1471 1472 1474 1476 1477 1477 1478 1478 1479 1479 1479
1421 1422 1423 1424 1425 1427 1428 1430 1432 1434 1435 1436 1438 1439 1442 1444 1447 1449 1451 1452 1454 1456 1459 1461 1462 1464 1466 1466 1466 1468 1469 1470 1471 1472 1472 1472 1473 1473
1416 1416 1417 1418 1420 1421 1422 1424 1426 1428 1429 1431 1432 1435 1437 1439 1441 1443 1445 1446 1448 1450 1452 1455 1457 1459 1460 1461 1462 1462 1463 1464 1465 1466 1466 1467 1467 1467
1412 1412 1412 1413 1414 1415 1416 1418 1420 1422 1424 1425 1427 1429 1431 1433 1435 1437 1439 1441 1442 1444 1446 1448 1451 1453 1454 1456 1456 1457 1458 1458 1460 1460 1461 1460 1461 1461
1408 1407 1407 1408 1408 1409 1411 1413 1415 1416 1418 1420 1422 1424 1426 1428 1430 1432 1434 1435 1436 1438 1440 1442 1445 1446 1448 1449 1451 1451 1453 1453 1454 1455 1455 1455 1454 1455
1403 1402 1403 1403 1404 1405 1406 1408 1409 1411 1413 1415 1417 1419 1421 1423 1425 1426 1428 1429 1431 1433 1435 1437 1439 1440 1441 1442 1444 1447 1447 1447 1448 1449 1449 1449 1449 1449
1398 1398 1399 1400 1400 1401 1402 1403 1405 1406 1408 1410 1411 1413 1415 1417 1419 1421 1422 1424 1426 1427 1429 1431 1433 1434 1436 1437 1438 1440 1442 1442 1443 1443 1443 1444 1444 1444
1394 1395 1395 1396 1396 1397 1398 1398 1400 1401 1403 1404 1406 1408 1410 1412 1413 1415 1417 1419 1421 1422 1424 1425 1427 1430 1431 1433 1433 1433 1435 1437 1438 1438 1438 1438 1437 1437
1391 1391 1391 1392 1393 1393 1393 1394 1395 1396 1397 1399 1401 1403 1405 1406 1408 1410 1412 1414 1415 1417 1418 1420 1422 1424 1426 1426 1426 1427 1429 1431 1432 1433 1433 1433 1432 1431
1388 1388 1388 1389 1389 1389 1389 1390 1390 1391 1393 1394 1396 1397 1399 1401 1403 1405 1407 1408 1410 1412 1413 1415 1417 1418 1419 1421 1422 1422 1423 1424 1426 1426 1427 1427 1428 1428